RYR24Q LEZL-LEMD

Flight info

Callsign RYR24Q
Flight time 0h 43m
Altitude 30000
Route HIJ Z230 SOTUK
Aircraft B38M/M-SDE1FGHILORVWXY/HB1

Departure

Time 2026-03-27 15:01
Airport Seville Airport (LEZL)

Arrival

Time 2026-03-27 15:44
Airport Adolfo Suárez Madrid–Barajas Airport (LEMD)
Time Latitude Longitude Altitude Speed Heading
2026-03-27 14:48 37.42214 -5.89947 96 ft 0 kts 314°
2026-03-27 14:52 37.42213 -5.89945 96 ft 1 kts 314°
2026-03-27 14:52 37.42201 -5.89931 96 ft 3 kts 314°
2026-03-27 14:52 37.42188 -5.89915 96 ft 2 kts 314°
2026-03-27 14:53 37.42178 -5.89896 96 ft 3 kts 285°
2026-03-27 14:53 37.42177 -5.89874 94 ft 3 kts 248°
2026-03-27 14:53 37.42186 -5.89855 97 ft 2 kts 225°
2026-03-27 14:53 37.42191 -5.89850 96 ft 0 kts 224°
2026-03-27 14:56 37.42186 -5.89856 97 ft 2 kts 224°
2026-03-27 14:56 37.42168 -5.89878 96 ft 5 kts 224°
2026-03-27 14:56 37.42139 -5.89914 96 ft 7 kts 224°
2026-03-27 14:57 37.42097 -5.89964 96 ft 10 kts 224°
2026-03-27 14:57 37.42054 -5.90038 98 ft 12 kts 256°
2026-03-27 14:57 37.42009 -5.90095 98 ft 10 kts 182°
2026-03-27 14:57 37.41980 -5.90163 98 ft 10 kts 268°
2026-03-27 14:58 37.41980 -5.90265 97 ft 13 kts 271°
2026-03-27 14:58 37.41980 -5.90390 97 ft 16 kts 269°
2026-03-27 14:58 37.41979 -5.90538 96 ft 18 kts 269°
2026-03-27 14:58 37.41978 -5.90709 95 ft 21 kts 269°
2026-03-27 14:59 37.41977 -5.90900 93 ft 23 kts 270°
2026-03-27 14:59 37.41976 -5.91116 92 ft 22 kts 270°
2026-03-27 14:59 37.41951 -5.91297 92 ft 19 kts 223°
2026-03-27 14:59 37.41845 -5.91252 92 ft 19 kts 123°
2026-03-27 15:00 37.41790 -5.91095 93 ft 20 kts 92°
2026-03-27 15:00 37.41790 -5.90811 96 ft 65 kts 89°
2026-03-27 15:00 37.41797 -5.89870 101 ft 147 kts 89°
2026-03-27 15:00 37.41786 -5.88350 480 ft 188 kts 90°
2026-03-27 15:01 37.41760 -5.86625 1469 ft 209 kts 88°
2026-03-27 15:01 37.41755 -5.84709 2356 ft 225 kts 89°
2026-03-27 15:01 37.41717 -5.82660 2929 ft 243 kts 90°
2026-03-27 15:01 37.41864 -5.80479 3619 ft 253 kts 76°
2026-03-27 15:02 37.42311 -5.78339 4613 ft 253 kts 72°
2026-03-27 15:02 37.43178 -5.76425 5445 ft 255 kts 45°
2026-03-27 15:02 37.44638 -5.75194 6326 ft 258 kts 27°
2026-03-27 15:02 37.46274 -5.74171 7183 ft 260 kts 28°
2026-03-27 15:03 37.47884 -5.73169 7977 ft 263 kts 27°
2026-03-27 15:03 37.49540 -5.72150 8807 ft 266 kts 27°
2026-03-27 15:03 37.51219 -5.71124 9625 ft 269 kts 26°
2026-03-27 15:03 37.52916 -5.70092 10332 ft 276 kts 26°
2026-03-27 15:04 37.54707 -5.69005 10688 ft 295 kts 26°
2026-03-27 15:04 37.56605 -5.67855 11135 ft 310 kts 26°
2026-03-27 15:04 37.57454 -5.67341 11354 ft 315 kts 26°
2026-03-27 15:04 37.59001 -5.66403 11907 ft 318 kts 26°
2026-03-27 15:05 37.61016 -5.65181 12683 ft 322 kts 26°
2026-03-27 15:05 37.63020 -5.63967 13441 ft 327 kts 25°
2026-03-27 15:05 37.65078 -5.62717 14190 ft 331 kts 25°
2026-03-27 15:05 37.67172 -5.61444 14917 ft 335 kts 25°
2026-03-27 15:06 37.69284 -5.60160 15650 ft 339 kts 25°
2026-03-27 15:06 37.71427 -5.58856 16379 ft 343 kts 26°
2026-03-27 15:06 37.73585 -5.57544 17081 ft 347 kts 26°
2026-03-27 15:06 37.75777 -5.56208 17781 ft 352 kts 26°
2026-03-27 15:07 37.77998 -5.54855 18448 ft 356 kts 26°
2026-03-27 15:07 37.80238 -5.53489 19054 ft 359 kts 26°
2026-03-27 15:07 37.82492 -5.52114 19689 ft 361 kts 26°
2026-03-27 15:07 37.84771 -5.50722 20275 ft 364 kts 25°
2026-03-27 15:08 37.87059 -5.49324 20887 ft 367 kts 25°
2026-03-27 15:08 37.89363 -5.47915 21491 ft 369 kts 25°
2026-03-27 15:08 37.91687 -5.46492 22075 ft 372 kts 25°
2026-03-27 15:08 37.94028 -5.45059 22666 ft 375 kts 25°
2026-03-27 15:09 37.96357 -5.43632 23242 ft 377 kts 25°
2026-03-27 15:09 37.98731 -5.42177 23763 ft 380 kts 25°
2026-03-27 15:09 38.01128 -5.40705 24223 ft 383 kts 25°
2026-03-27 15:09 38.03537 -5.39226 24709 ft 385 kts 25°
2026-03-27 15:10 38.05954 -5.37740 25161 ft 388 kts 25°
2026-03-27 15:10 38.08389 -5.36243 25590 ft 391 kts 25°
2026-03-27 15:10 38.10842 -5.34733 25980 ft 394 kts 25°
2026-03-27 15:10 38.13320 -5.33207 26453 ft 396 kts 25°
2026-03-27 15:11 38.15809 -5.31672 26856 ft 400 kts 26°
2026-03-27 15:11 38.18329 -5.30118 27259 ft 402 kts 26°
2026-03-27 15:11 38.20855 -5.28558 27686 ft 405 kts 26°
2026-03-27 15:11 38.23393 -5.26990 28092 ft 407 kts 26°
2026-03-27 15:12 38.25952 -5.25408 28502 ft 410 kts 26°
2026-03-27 15:12 38.28523 -5.23816 28926 ft 412 kts 26°
2026-03-27 15:12 38.31060 -5.22245 29445 ft 410 kts 26°
2026-03-27 15:12 38.33630 -5.20652 29932 ft 410 kts 26°
2026-03-27 15:13 38.36202 -5.19057 30040 ft 409 kts 26°
2026-03-27 15:13 38.41294 -5.15895 30026 ft 407 kts 26°
2026-03-27 15:14 38.46393 -5.12725 30028 ft 407 kts 26°
2026-03-27 15:14 38.51489 -5.09673 30021 ft 407 kts 21°
2026-03-27 15:15 38.56768 -5.07041 30011 ft 408 kts 22°
2026-03-27 15:15 38.62052 -5.04340 30024 ft 409 kts 22°
2026-03-27 15:16 38.67341 -5.01621 30030 ft 409 kts 22°
2026-03-27 15:16 38.72635 -4.98895 30031 ft 409 kts 22°
2026-03-27 15:17 38.77913 -4.96172 30027 ft 409 kts 22°
2026-03-27 15:17 38.83220 -4.93430 30030 ft 413 kts 22°
2026-03-27 15:18 38.88515 -4.90690 30032 ft 413 kts 22°
2026-03-27 15:18 38.93846 -4.87926 30030 ft 413 kts 22°
2026-03-27 15:19 38.99172 -4.85161 30032 ft 413 kts 22°
2026-03-27 15:19 39.04477 -4.82402 30039 ft 402 kts 22°
2026-03-27 15:19 39.07024 -4.81076 30052 ft 386 kts 22°
2026-03-27 15:20 39.09481 -4.79796 29852 ft 377 kts 22°
2026-03-27 15:20 39.11884 -4.78543 29493 ft 371 kts 22°
2026-03-27 15:20 39.14271 -4.77297 29052 ft 368 kts 21°
2026-03-27 15:20 39.16629 -4.76066 28641 ft 365 kts 22°
2026-03-27 15:21 39.18906 -4.74721 28160 ft 364 kts 32°
2026-03-27 15:21 39.20822 -4.72599 27693 ft 363 kts 44°
2026-03-27 15:21 39.22616 -4.70337 27340 ft 359 kts 43°
2026-03-27 15:21 39.24394 -4.68095 26951 ft 356 kts 43°
2026-03-27 15:22 39.26147 -4.65858 26562 ft 353 kts 43°
2026-03-27 15:22 39.27882 -4.63627 26170 ft 351 kts 43°
2026-03-27 15:22 39.29606 -4.61399 25804 ft 349 kts 43°
2026-03-27 15:22 39.31318 -4.59182 25433 ft 347 kts 43°
2026-03-27 15:23 39.33018 -4.56979 25076 ft 345 kts 43°
2026-03-27 15:23 39.34708 -4.54785 24712 ft 343 kts 43°
2026-03-27 15:23 39.36385 -4.52605 24343 ft 342 kts 43°
2026-03-27 15:23 39.38061 -4.50428 23983 ft 340 kts 44°
2026-03-27 15:24 39.39674 -4.48330 23640 ft 339 kts 44°
2026-03-27 15:24 39.41381 -4.46108 23225 ft 337 kts 44°
2026-03-27 15:24 39.43027 -4.43964 22853 ft 334 kts 43°
2026-03-27 15:24 39.44637 -4.41866 22517 ft 331 kts 44°
2026-03-27 15:25 39.46254 -4.39755 22167 ft 328 kts 44°
2026-03-27 15:25 39.47856 -4.37664 21838 ft 325 kts 43°
2026-03-27 15:25 39.49441 -4.35595 21505 ft 321 kts 44°
2026-03-27 15:25 39.51010 -4.33545 21171 ft 319 kts 44°
2026-03-27 15:26 39.52561 -4.31516 20801 ft 322 kts 43°
2026-03-27 15:26 39.54146 -4.29439 20427 ft 326 kts 44°
2026-03-27 15:26 39.55743 -4.27348 20088 ft 326 kts 43°
2026-03-27 15:26 39.57340 -4.25255 19720 ft 326 kts 44°
2026-03-27 15:27 39.58933 -4.23164 19351 ft 325 kts 43°
2026-03-27 15:27 39.60515 -4.21089 18987 ft 324 kts 44°
2026-03-27 15:27 39.62097 -4.19009 18620 ft 323 kts 44°
2026-03-27 15:27 39.63672 -4.16940 18238 ft 322 kts 44°
2026-03-27 15:28 39.65246 -4.14870 17820 ft 321 kts 44°
2026-03-27 15:28 39.66278 -4.13511 17572 ft 320 kts 44°
2026-03-27 15:28 39.67840 -4.11454 17189 ft 318 kts 44°
2026-03-27 15:28 39.69393 -4.09408 16775 ft 318 kts 44°
2026-03-27 15:29 39.70942 -4.07366 16346 ft 318 kts 44°
2026-03-27 15:29 39.72988 -4.04666 15872 ft 315 kts 44°
2026-03-27 15:29 39.74028 -4.03292 15602 ft 315 kts 44°
2026-03-27 15:29 39.75540 -4.01295 15255 ft 313 kts 44°
2026-03-27 15:30 39.77080 -3.99260 14934 ft 310 kts 44°
2026-03-27 15:30 39.78569 -3.97289 14592 ft 308 kts 44°
2026-03-27 15:30 39.80068 -3.95305 14260 ft 306 kts 44°
2026-03-27 15:30 39.81554 -3.93336 13933 ft 304 kts 45°
2026-03-27 15:31 39.83036 -3.91371 13569 ft 302 kts 44°
2026-03-27 15:31 39.84508 -3.89418 13195 ft 301 kts 44°
2026-03-27 15:31 39.85969 -3.87478 12833 ft 299 kts 44°
2026-03-27 15:31 39.87420 -3.85552 12480 ft 297 kts 44°
2026-03-27 15:32 39.88861 -3.83636 12124 ft 295 kts 44°
2026-03-27 15:32 39.90301 -3.81720 11766 ft 294 kts 44°
2026-03-27 15:32 39.91724 -3.79826 11475 ft 291 kts 45°
2026-03-27 15:32 39.93139 -3.77943 11132 ft 290 kts 45°
2026-03-27 15:33 39.94541 -3.76074 10801 ft 288 kts 45°
2026-03-27 15:33 39.95939 -3.74212 10485 ft 286 kts 45°
2026-03-27 15:33 39.97312 -3.72380 10163 ft 284 kts 45°
2026-03-27 15:33 39.98691 -3.70537 9790 ft 284 kts 45°
2026-03-27 15:34 40.00061 -3.68707 9444 ft 281 kts 45°
2026-03-27 15:34 40.01429 -3.66880 9092 ft 280 kts 45°
2026-03-27 15:34 40.02781 -3.65071 8738 ft 278 kts 45°
2026-03-27 15:34 40.04130 -3.63264 8407 ft 276 kts 45°
2026-03-27 15:35 40.05468 -3.61474 8087 ft 274 kts 45°
2026-03-27 15:35 40.06796 -3.59695 7743 ft 274 kts 45°
2026-03-27 15:35 40.08125 -3.57912 7428 ft 272 kts 45°
2026-03-27 15:35 40.09438 -3.56152 7129 ft 270 kts 45°
2026-03-27 15:36 40.10748 -3.54392 6802 ft 269 kts 45°
2026-03-27 15:36 40.12045 -3.52651 6487 ft 267 kts 45°
2026-03-27 15:36 40.13339 -3.50913 6173 ft 266 kts 45°
2026-03-27 15:36 40.14622 -3.49189 6072 ft 265 kts 45°
2026-03-27 15:37 40.15913 -3.47451 6049 ft 268 kts 45°
2026-03-27 15:37 40.17297 -3.45886 6029 ft 266 kts 28°
2026-03-27 15:37 40.18997 -3.44932 6072 ft 267 kts 24°
2026-03-27 15:37 40.20679 -3.43970 6046 ft 254 kts 24°
2026-03-27 15:38 40.22234 -3.43082 6076 ft 240 kts 24°
2026-03-27 15:38 40.23726 -3.42235 6062 ft 227 kts 24°
2026-03-27 15:38 40.25132 -3.41438 6064 ft 212 kts 24°
2026-03-27 15:38 40.26440 -3.40696 6050 ft 198 kts 24°
2026-03-27 15:39 40.27663 -3.40002 6023 ft 186 kts 24°
2026-03-27 15:39 40.28868 -3.39320 6034 ft 193 kts 24°
2026-03-27 15:39 40.30132 -3.38603 6037 ft 201 kts 24°
2026-03-27 15:39 40.31498 -3.38257 5857 ft 205 kts 356°
2026-03-27 15:40 40.32838 -3.38974 5578 ft 215 kts 330°
2026-03-27 15:40 40.34036 -3.40131 5277 ft 217 kts 329°
2026-03-27 15:40 40.35254 -3.41343 4978 ft 217 kts 329°
2026-03-27 15:40 40.36412 -3.42512 4729 ft 208 kts 329°
2026-03-27 15:41 40.37520 -3.43636 4431 ft 192 kts 328°
2026-03-27 15:41 40.38536 -3.44666 4167 ft 177 kts 328°
2026-03-27 15:41 40.39495 -3.45635 3908 ft 172 kts 327°
2026-03-27 15:41 40.40408 -3.46564 3735 ft 161 kts 326°
2026-03-27 15:42 40.41278 -3.47449 3509 ft 157 kts 326°
2026-03-27 15:42 40.42137 -3.48320 3272 ft 156 kts 326°
2026-03-27 15:42 40.42993 -3.49193 3005 ft 155 kts 326°
2026-03-27 15:42 40.43824 -3.50097 2763 ft 156 kts 324°
2026-03-27 15:43 40.45482 -3.51795 2446 ft 147 kts 328°
2026-03-27 15:43 40.46308 -3.52611 2235 ft 149 kts 328°
2026-03-27 15:43 40.47129 -3.53412 2013 ft 144 kts 327°
2026-03-27 15:44 40.47882 -3.54163 1931 ft 123 kts 328°
2026-03-27 15:44 40.48366 -3.54651 1938 ft 53 kts 321°
2026-03-27 15:44 40.48584 -3.54872 1947 ft 38 kts 322°
2026-03-27 15:44 40.48762 -3.55107 1953 ft 36 kts 301°
2026-03-27 15:45 40.48837 -3.55333 1954 ft 23 kts 292°
2026-03-27 15:45 40.48927 -3.55502 1956 ft 23 kts 321°
2026-03-27 15:45 40.49056 -3.55629 1959 ft 23 kts 322°
2026-03-27 15:45 40.49179 -3.55754 1962 ft 22 kts 322°
2026-03-27 15:46 40.49295 -3.55880 1962 ft 20 kts 296°
2026-03-27 15:46 40.49298 -3.56075 1961 ft 23 kts 269°
2026-03-27 15:46 40.49190 -3.56140 1961 ft 20 kts 178°
2026-03-27 15:46 40.49043 -3.56138 1961 ft 22 kts 180°
2026-03-27 15:47 40.48886 -3.56137 1961 ft 23 kts 180°
2026-03-27 15:47 40.48768 -3.56211 1963 ft 20 kts 270°
2026-03-27 15:47 40.48768 -3.56388 1968 ft 19 kts 269°
2026-03-27 15:47 40.48767 -3.56556 1975 ft 18 kts 270°
2026-03-27 15:48 40.48767 -3.56712 1980 ft 17 kts 270°
2026-03-27 15:48 40.48767 -3.56867 1983 ft 17 kts 270°
2026-03-27 15:48 40.48767 -3.57019 1983 ft 17 kts 270°
2026-03-27 15:48 40.48765 -3.57167 1988 ft 16 kts 268°
2026-03-27 15:49 40.48763 -3.57316 1988 ft 16 kts 269°
2026-03-27 15:49 40.48760 -3.57458 1991 ft 15 kts 269°
2026-03-27 15:49 40.48761 -3.57599 1993 ft 16 kts 271°
2026-03-27 15:49 40.48764 -3.57744 1995 ft 16 kts 270°
2026-03-27 15:50 40.48762 -3.57885 2000 ft 14 kts 269°
2026-03-27 15:50 40.48761 -3.58009 2004 ft 13 kts 269°
2026-03-27 15:50 40.48754 -3.58090 2007 ft 3 kts 225°
2026-03-27 15:50 40.48743 -3.58103 2006 ft 3 kts 220°
2026-03-27 15:51 40.48674 -3.58118 2008 ft 17 kts 180°
2026-03-27 15:51 40.48579 -3.58046 2004 ft 18 kts 128°
2026-03-27 15:51 40.48466 -3.57941 1997 ft 24 kts 147°
2026-03-27 15:51 40.48317 -3.57813 1994 ft 26 kts 146°
2026-03-27 15:52 40.48175 -3.57667 1999 ft 26 kts 141°
2026-03-27 15:52 40.48039 -3.57525 2003 ft 25 kts 143°
2026-03-27 15:52 40.47902 -3.57389 2006 ft 24 kts 143°
2026-03-27 15:52 40.47780 -3.57268 2003 ft 21 kts 142°
2026-03-27 15:53 40.47653 -3.57139 2000 ft 25 kts 142°
2026-03-27 15:53 40.47507 -3.56989 1994 ft 28 kts 142°
2026-03-27 15:53 40.47362 -3.56845 1990 ft 23 kts 142°
2026-03-27 15:53 40.47277 -3.56759 1988 ft 16 kts 142°
2026-03-27 15:54 40.47186 -3.56667 1984 ft 10 kts 146°
2026-03-27 15:54 40.47124 -3.56618 1984 ft 12 kts 140°
2026-03-27 15:54 40.47063 -3.56650 1981 ft 8 kts 234°
2026-03-27 15:54 40.47057 -3.56661 1981 ft 0 kts 233°
2026-03-27 16:01 40.47057 -3.56660 1981 ft 0 kts 233°